Flag for France Weather past 2 weeks in Reims, France

Now
66 °F

Passing clouds.


Feels Like: 66 °F
Forecast: 59 / 80 °F
Wind: 9 mph from North

Location: Chalons-Vatry

Current Time: Jul 26, 2014 at 10:13:03 AM

Latest Report: Jul 26, 2014 at 9:30 AM


Visibility: N/A

Pressure: 29.98 "Hg

Humidity: 83%

Dew point: 61 °F

Location of ReimsLocation

Historic Weather in Reims — Graph

°F

Reims temperature yesterday

Maximum temperature yesterday: 82 °F (at 5:00 PM)
Minimum temperature yesterday: 55 °F (at 5:30 AM)
Average temperature yesterday: 69 °F

Past Weeks' High & Low Weather Summary

 TemperatureHumidityPressure
High95 °F (Jul 18, 4:00 PM)100% (Jul 11, 1:00 PM)30.18 "Hg (Jul 11, 1:00 PM)
Low54 °F (Jul 15, 4:30 AM)27% (Jul 24, 4:00 PM)29.80 "Hg (Jul 19, 7:30 AM)
Average69 °F72%29.98 "Hg
* Reported Jul 11 9:00 AM — Jul 26 9:00 AM, Reims, Weather by CustomWeather, © 2014

Note: Actual official high and low records may vary slightly from our data, if they occured in-between our weather recording intervals... More about our weather records

Advertising

Reims weather history for previous 24 hours

 ConditionsComfort  
Time TempWeatherWind HumidityBarometerVisibility
9:00 AM
Jul 26
64 °FClear.6 mph88%29.95 "HgN/A
8:30 AM61 °FPassing clouds.2 mph94%29.95 "HgN/A
8:00 AM61 °FPartly cloudy.6 mph88%29.95 "Hg6 mi
7:30 AM61 °FPassing clouds.8 mph94%29.95 "HgN/A
7:00 AM61 °FPartly cloudy.7 mph88%29.92 "HgN/A
6:30 AM59 °FPartly cloudy.7 mph94%29.92 "Hg6 mi
6:00 AM59 °FClear.6 mph94%29.92 "HgN/A
5:30 AM59 °FClear.6 mph94%29.92 "HgN/A
5:00 AM59 °FClear.6 mph94%29.92 "HgN/A
4:30 AM59 °FPassing clouds.6 mph94%29.92 "HgN/A
4:00 AM61 °FClear.7 mph88%29.92 "HgN/A
3:30 AM61 °FClear.6 mph88%29.92 "HgN/A
3:00 AM61 °FClear.6 mph83%29.92 "HgN/A
2:30 AM61 °FClear.8 mph83%29.92 "HgN/A
2:00 AM63 °FClear.6 mph77%29.92 "HgN/A
1:30 AM63 °FClear.5 mph77%29.92 "HgN/A
1:00 AM63 °FClear.5 mph77%29.92 "HgN/A
12:30 AM64 °FPassing clouds.5 mph73%29.92 "HgN/A
12:00 AM64 °FClear.6 mph73%29.92 "HgN/A
11:30 PM
Jul 25
66 °FClear.5 mph68%29.92 "HgN/A
11:00 PM66 °FClear.6 mph68%29.92 "HgN/A
10:30 PM68 °FClear.5 mph64%29.89 "HgN/A
10:00 PM68 °FClear.5 mph64%29.89 "HgN/A
9:30 PM70 °FClear.6 mph60%29.89 "HgN/A
9:00 PM73 °FPassing clouds.8 mph50%29.89 "HgN/A
8:30 PM77 °FClear.9 mph44%29.89 "HgN/A
8:00 PM79 °FClear.12 mph42%29.89 "HgN/A
7:30 PM79 °FClear.13 mph42%29.86 "HgN/A
7:00 PM79 °FClear.14 mph42%29.86 "HgN/A
6:30 PM79 °FClear.13 mph42%29.86 "HgN/A
6:00 PM79 °FClear.10 mph39%29.86 "HgN/A
5:30 PM82 °FClear.9 mph35%29.86 "HgN/A
5:00 PM82 °FClear.9 mph32%29.89 "HgN/A
4:30 PM81 °FClear.9 mph34%29.89 "HgN/A
4:00 PM79 °FClear.9 mph37%29.89 "HgN/A
3:30 PM81 °FClear.8 mph39%29.89 "HgN/A
3:00 PM81 °FScattered clouds.7 mph42%29.89 "HgN/A
2:30 PM81 °FClear.3 mph42%29.89 "HgN/A
2:00 PM79 °FClear.6 mph42%29.89 "HgN/A
1:30 PM79 °FClear.7 mph45%29.92 "HgN/A
1:00 PM79 °FClear.7 mph45%29.92 "HgN/A
12:30 PM77 °FClear.6 mph47%29.92 "HgN/A
12:00 PM77 °FClear.7 mph47%29.92 "HgN/A
11:30 AM75 °FClear.8 mph50%29.92 "HgN/A
11:00 AM73 °FClear.7 mph57%29.92 "HgN/A
10:30 AM72 °FClear.5 mph61%29.92 "HgN/A
10:00 AM70 °FPassing clouds.6 mph64%29.92 "HgN/A
Weather by CustomWeather, © 2014

See weather overviewHow to use our weather pages